Wind_Speed
9 8 7 6 7 11 10 7 8 8 8 7 6 6 6 7 7 6 7 7 7 8 8 9 10 10 9 8 8 7 7 7 6 6 5 5 4 4 3 3 3 3 3 3 3 3 3 2 2
8 7 5 6 9 12 8 7 10 10 9 8 7 8 8 8 8 8 8 8 7 8 8 9 10 10 9 9 8 8 7 7 7 6 5 4 4 3 3 3 3 3 2 3 3 2 2 2 1
6 5 6 7 10 9 7 9 10 10 10 8 8 9 9 8 9 9 9 9 8 9 9 10 10 10 10 9 9 8 7 7 7 6 6 5 4 4 3 3 2 2 2 2 2 2 1 1 0
5 4 5 7 8 6 8 10 11 11 10 10 9 9 8 9 10 9 9 9 8 9 10 10 11 11 11 11 10 9 8 8 7 7 6 5 4 4 3 2 2 2 2 1 1 1 0 1 1
4 4 6 6 5 4 8 11 10 11 11 11 10 10 9 9 9 9 9 9 8 8 10 11 11 11 11 11 11 10 9 9 8 8 7 6 5 4 3 2 2 1 1 1 1 1 0 1 1
3 4 6 6 5 6 10 11 10 10 11 11 11 11 10 10 9 9 8 8 8 8 10 12 13 12 12 12 11 11 10 10 9 9 8 7 5 4 3 2 2 1 1 1 1 1 1 1 1
2 3 4 2 3 7 10 11 10 11 10 10 11 11 9 9 10 9 9 8 7 8 10 12 13 13 13 13 13 12 12 11 10 10 9 8 6 5 4 3 2 2 1 1 1 1 1 2 2
1 1 3 1 2 7 11 11 11 11 10 11 11 12 10 11 10 10 10 9 8 8 9 11 12 13 14 14 14 13 13 12 12 11 10 8 7 6 5 4 3 2 2 2 2 2 2 3 3
1 3 3 2 2 8 11 10 10 11 10 11 10 11 12 12 12 11 11 10 9 8 9 11 12 13 14 14 14 14 14 13 13 12 10 9 8 7 6 5 4 3 3 3 2 3 3 3 3
1 2 2 0 5 9 11 11 9 10 11 13 12 11 11 12 12 12 12 12 11 10 9 10 12 14 14 15 15 15 15 14 14 13 12 11 9 8 6 5 4 4 3 3 3 3 3 3 3
3 4 4 5 9 11 9 9 9 10 13 14 15 14 13 12 13 13 13 13 12 12 11 11 12 15 15 15 16 16 15 15 14 14 12 11 9 8 7 6 5 4 3 3 3 3 3 3 3
5 6 8 8 9 10 9 9 10 11 13 15 15 16 16 15 15 15 13 13 13 13 13 13 15 16 17 17 17 17 16 15 15 14 13 11 10 8 7 6 6 5 4 3 3 3 3 3 3
7 7 8 9 10 9 9 9 11 10 12 14 16 17 17 17 16 16 15 15 15 15 15 15 16 17 18 17 18 17 17 16 15 14 13 12 10 9 7 6 6 5 4 3 3 2 2 2 2
8 9 9 9 9 9 8 10 12 12 11 14 17 18 17 17 17 16 16 17 17 17 17 16 17 18 19 19 17 17 17 17 15 15 14 12 10 9 7 6 6 5 4 4 3 2 2 1 1
9 9 8 7 7 7 9 11 15 14 12 14 17 18 17 17 18 18 17 18 19 17 18 18 18 18 19 20 18 18 18 17 16 15 14 12 11 9 8 7 6 5 4 4 3 2 2 1 1
7 7 7 8 8 8 10 13 16 14 13 16 18 19 18 19 19 19 18 18 18 18 18 18 17 17 17 19 19 18 18 19 18 16 15 13 12 10 9 7 7 5 5 4 4 3 2 1 0
4 6 9 11 8 10 11 12 16 15 14 17 19 19 19 19 20 19 18 18 18 18 18 18 16 16 16 19 20 18 18 19 19 17 15 14 13 11 9 8 7 6 5 5 4 3 2 2 1
5 9 12 9 10 12 12 12 14 15 14 17 19 19 20 19 19 18 17 16 17 17 16 16 15 16 16 18 19 18 18 19 18 17 15 14 13 11 10 9 8 7 6 6 5 4 3 2 2
10 12 11 8 11 14 14 13 13 15 15 15 17 19 20 19 18 17 16 16 16 15 14 14 14 15 16 16 18 19 19 18 18 17 15 14 13 12 11 9 8 7 7 6 6 5 4 3 2
14 14 13 13 15 15 15 14 13 16 16 15 16 18 20 19 17 17 16 15 15 13 12 12 12 12 14 16 17 18 19 18 17 16 15 15 14 13 11 10 8 7 7 7 7 6 5 4 3
14 15 14 14 14 14 14 13 14 16 16 15 15 18 18 17 17 17 15 14 14 12 10 10 11 11 13 16 16 16 18 17 16 15 14 14 14 13 12 10 9 8 8 8 7 6 5 4 4
14 14 15 15 15 15 13 15 16 16 15 14 15 16 16 16 17 16 14 13 12 11 10 9 9 10 12 15 16 16 16 16 15 15 14 14 14 13 12 11 10 9 8 8 8 7 6 5 5
14 15 15 15 15 15 14 15 16 18 16 13 14 15 14 15 16 15 14 13 12 12 10 8 9 9 11 14 16 16 16 16 16 15 14 14 14 13 12 11 11 10 9 8 8 7 7 6 6
15 15 14 13 13 13 13 14 14 16 15 14 16 16 14 15 15 15 14 13 12 12 11 8 8 9 11 13 15 17 17 17 16 14 14 14 14 13 13 13 12 11 10 9 9 9 8 8 7
14 13 11 12 13 13 12 12 12 13 15 17 17 16 15 15 15 14 13 13 12 11 10 8 7 8 9 12 15 16 17 16 16 15 14 14 14 14 14 14 13 12 11 10 10 10 10 10 9
14 13 13 13 15 16 13 12 9 10 14 16 17 16 16 15 14 13 13 12 11 10 8 6 5 5 7 10 13 15 15 16 16 16 15 15 15 15 15 14 14 14 13 12 12 12 12 12 12
16 15 13 15 16 17 16 12 7 10 14 16 16 16 16 15 14 13 13 11 10 9 7 6 4 5 6 8 11 14 15 15 15 16 16 15 16 16 16 15 15 14 14 13 14 14 14 14 14
17 16 15 17 17 15 14 15 13 14 14 15 16 17 17 15 14 13 12 11 10 8 7 5 3 4 5 7 10 13 14 15 15 15 16 15 15 16 15 15 15 15 14 15 15 16 16 16 16
16 18 19 19 18 17 16 17 17 17 15 16 16 17 17 16 15 14 12 11 10 8 7 6 4 5 6 7 9 10 12 14 14 15 15 15 15 16 16 16 16 15 15 15 15 16 17 17 18
17 18 19 21 21 20 19 19 18 16 15 16 16 19 18 16 15 14 13 12 10 8 7 6 6 5 6 7 9 10 12 12 14 14 15 15 15 16 16 16 16 15 15 15 16 17 18 18 19
Wind_Direction
44 47 49 58 66 57 47 9 334 334 329 328 319 305 295 301 291 277 274 266 252 245 229 223 218 209 206 208 213 216 218 218 211 206 199 182 169 159 148 138 132 127 122 115 107 99 91 82 74
43 44 51 50 56 48 35 343 329 339 339 332 323 312 303 311 300 286 278 271 257 248 233 226 220 215 214 216 219 222 226 227 224 214 209 197 184 172 164 154 145 137 130 121 114 101 89 81 76
42 39 49 38 53 37 1 331 328 338 340 333 326 316 309 314 304 292 281 274 259 246 235 230 228 225 222 223 225 227 233 236 233 225 221 211 199 185 175 164 150 142 134 128 124 112 96 73 0
37 39 58 51 52 35 334 322 323 327 331 331 329 321 314 311 307 299 288 279 264 246 238 235 234 233 230 228 230 231 235 239 239 235 230 221 209 197 181 170 161 152 141 138 141 139 123 306 300
35 46 54 50 46 16 312 315 323 322 326 326 325 319 317 316 313 305 295 285 269 250 244 239 237 235 233 231 234 237 237 239 240 240 235 228 218 209 195 186 184 170 157 153 153 191 257 304 299
20 51 44 29 24 320 303 312 318 313 318 322 321 319 318 321 315 310 303 293 277 257 248 243 241 236 235 236 236 238 240 241 240 240 237 231 227 222 214 206 209 198 184 174 191 236 273 305 291
8 59 67 18 343 297 296 307 312 312 313 320 317 312 312 319 313 312 306 299 284 265 254 247 244 240 238 239 237 238 240 242 242 242 239 235 235 234 229 222 223 221 230 240 247 254 282 290 282
21 104 118 126 305 286 293 303 311 308 312 314 315 312 318 320 316 313 305 296 287 275 260 251 249 245 241 238 237 236 238 242 243 243 240 239 241 241 237 233 236 242 248 255 264 269 279 281 279
88 103 109 65 315 283 287 294 303 308 308 310 310 313 319 318 316 313 305 297 288 280 267 255 251 248 243 239 237 237 241 243 244 244 245 245 245 245 243 242 249 252 257 261 270 274 273 272 271
184 132 110 222 255 265 279 287 294 303 305 303 303 314 317 323 318 310 304 298 292 285 277 259 253 249 244 239 238 238 241 244 246 245 247 250 249 251 250 247 250 255 261 265 270 273 267 267 265
232 223 231 238 251 258 265 285 295 295 300 305 314 318 321 326 318 311 303 299 294 289 281 270 260 252 245 241 240 238 238 240 243 244 247 249 253 253 251 252 257 263 266 264 268 269 261 258 259
267 243 248 243 249 257 263 268 276 286 301 312 321 323 322 322 316 309 303 302 298 291 286 276 265 255 245 241 236 236 236 237 239 243 246 248 253 255 252 254 263 269 269 263 254 262 249 248 251
267 262 257 259 263 264 268 273 279 285 298 310 315 319 316 316 313 309 301 302 299 293 287 280 269 258 249 241 235 235 234 234 236 240 244 248 255 259 255 255 265 271 271 258 248 247 241 244 250
266 264 261 258 261 263 271 275 280 281 290 304 312 313 312 312 312 309 303 298 293 291 287 280 273 264 253 243 236 233 231 232 233 236 240 244 252 257 257 256 266 273 263 240 227 215 202 227 256
264 260 261 264 272 280 282 274 279 285 299 310 312 312 312 312 311 309 306 300 294 288 286 281 273 263 251 243 241 235 229 229 230 234 238 243 248 253 252 252 258 265 251 231 218 206 205 212 239
263 264 271 274 268 275 280 281 288 293 303 310 310 311 312 312 311 311 306 302 295 288 285 281 272 260 252 244 238 233 228 226 227 230 235 242 244 246 247 248 249 252 244 229 213 206 206 211 186
258 278 277 275 261 267 274 276 285 298 305 305 308 311 312 312 310 312 310 305 297 291 285 280 271 257 253 241 232 231 228 224 224 227 232 238 240 241 241 242 247 244 241 225 211 210 212 207 191
254 267 263 260 265 272 277 274 281 291 293 302 309 312 311 312 313 315 313 309 300 293 287 282 269 253 250 238 227 227 224 221 219 225 229 234 232 234 234 237 242 241 234 222 215 214 207 201 192
230 253 265 262 258 267 275 273 275 286 291 300 307 309 310 313 318 320 315 310 305 296 289 282 268 248 240 230 224 222 220 219 220 223 225 227 227 229 227 233 237 232 226 220 215 209 203 196 188
232 234 240 247 250 259 267 273 268 278 293 300 307 309 308 314 318 321 319 314 310 301 289 281 268 251 237 224 219 218 218 217 219 222 224 223 225 225 225 231 231 227 221 218 216 206 204 201 192
236 234 233 241 252 261 271 275 276 278 288 296 307 309 311 314 319 322 319 314 313 310 298 285 266 251 234 220 213 215 217 217 218 220 221 223 222 222 224 228 228 225 220 217 214 206 205 205 201
240 240 240 243 251 255 263 277 285 284 287 289 301 309 313 316 320 324 323 318 317 316 304 291 271 245 231 216 211 212 216 215 216 216 214 219 219 220 224 227 226 222 218 214 211 209 210 209 210
234 237 243 246 250 250 250 263 273 283 287 296 304 310 316 318 320 325 324 321 319 318 307 286 265 248 228 212 211 211 210 212 216 217 216 220 219 221 223 223 220 219 216 211 210 213 215 216 220
237 237 242 247 249 253 254 258 270 287 299 303 305 310 313 313 318 321 322 322 319 321 318 295 264 246 230 218 212 208 208 214 216 217 219 220 218 220 221 218 217 219 218 218 219 222 223 225 229
237 238 241 257 269 270 265 255 264 279 292 295 299 304 306 308 313 319 321 325 323 320 323 316 266 242 224 216 211 208 207 210 213 214 215 217 217 219 221 220 221 222 223 225 226 229 231 234 238
236 237 237 250 271 283 281 262 252 269 286 293 294 297 303 305 310 315 318 323 327 325 325 321 289 249 221 212 209 208 211 215 215 215 216 216 219 220 222 224 226 227 228 232 233 235 238 242 246
224 235 238 251 263 283 292 289 257 266 280 288 295 299 302 304 307 312 315 319 323 322 322 318 305 245 229 216 211 209 213 215 216 216 215 217 220 222 224 227 229 229 232 238 240 242 246 250 252
229 223 233 238 252 263 271 278 277 272 276 283 290 298 298 302 303 307 313 317 317 316 311 308 296 247 228 223 214 211 212 213 214 215 217 216 218 222 226 229 230 231 237 243 244 247 251 255 258
239 230 230 236 238 248 258 266 272 273 274 279 288 293 296 297 300 302 306 312 311 311 304 295 286 263 243 228 221 218 215 213 215 217 217 219 222 225 229 232 234 237 243 246 248 252 257 259 261
237 239 238 242 241 240 249 266 275 277 274 278 282 288 292 292 295 297 299 302 299 297 296 286 277 262 241 233 228 228 224 223 222 222 221 223 226 227 230 235 237 239 245 249 253 255 260 262 264
Height
5887 5886 5885 5885 5884 5882 5883 5885 5885 5883 5882 5881 5881 5880 5878 5878 5878 5879 5876 5876 5877 5877 5878 5879 5880 5881 5883 5884 5885 5885 5886 5886 5886 5887 5887 5887 5887 5887 5887 5887 5887 5887 5887 5887 5887 5888 5888 5887 5887
5887 5887 5886 5884 5882 5882 5884 5886 5885 5883 5882 5881 5881 5879 5878 5878 5877 5877 5876 5876 5877 5877 5877 5878 5880 5881 5882 5883 5884 5885 5886 5886 5887 5887 5887 5887 5887 5887 5888 5888 5888 5888 5888 5888 5888 5888 5888 5888 5888
5887 5887 5887 5885 5883 5885 5887 5887 5885 5883 5882 5882 5881 5880 5879 5878 5877 5877 5876 5876 5876 5876 5877 5878 5879 5881 5882 5883 5884 5885 5886 5886 5887 5887 5887 5887 5888 5888 5888 5888 5888 5888 5888 5888 5888 5888 5888 5888 5888
5888 5888 5887 5887 5886 5888 5888 5887 5885 5884 5883 5881 5880 5879 5878 5878 5877 5876 5875 5875 5875 5876 5876 5877 5878 5880 5881 5882 5884 5884 5885 5886 5886 5887 5887 5887 5888 5888 5888 5888 5888 5888 5889 5889 5889 5889 5889 5888 5888
5888 5887 5886 5886 5887 5889 5889 5887 5885 5884 5882 5881 5880 5878 5877 5876 5876 5875 5875 5874 5875 5875 5876 5876 5877 5879 5880 5881 5883 5884 5885 5885 5886 5886 5887 5887 5888 5888 5888 5888 5888 5889 5889 5889 5889 5889 5889 5888 5888
5888 5887 5887 5887 5888 5890 5889 5887 5885 5884 5882 5881 5879 5878 5877 5876 5875 5875 5874 5874 5874 5874 5874 5875 5876 5878 5879 5880 5881 5883 5884 5885 5885 5886 5886 5887 5887 5888 5888 5888 5888 5889 5889 5889 5889 5889 5889 5888 5888
5888 5886 5886 5888 5890 5890 5889 5887 5885 5884 5882 5881 5879 5877 5875 5875 5874 5874 5873 5873 5873 5873 5874 5874 5875 5876 5877 5879 5880 5881 5883 5884 5884 5885 5886 5886 5887 5887 5888 5888 5888 5888 5889 5889 5889 5888 5888 5888 5888
5886 5887 5886 5887 5889 5891 5888 5886 5885 5883 5882 5880 5878 5876 5873 5873 5872 5872 5872 5872 5872 5872 5872 5872 5873 5874 5876 5877 5878 5880 5881 5882 5883 5884 5885 5886 5886 5887 5887 5887 5888 5888 5888 5888 5888 5888 5888 5888 5887
5885 5887 5886 5887 5890 5890 5888 5886 5885 5882 5881 5879 5877 5876 5875 5873 5872 5871 5870 5870 5870 5870 5870 5871 5871 5872 5874 5875 5876 5877 5879 5881 5882 5883 5884 5885 5886 5886 5887 5887 5887 5887 5888 5888 5888 5887 5887 5887 5887
5885 5886 5886 5888 5890 5889 5887 5885 5884 5882 5879 5878 5873 5873 5872 5871 5871 5870 5869 5868 5868 5868 5868 5869 5869 5870 5871 5872 5874 5875 5877 5879 5880 5882 5883 5884 5885 5885 5886 5886 5886 5887 5887 5887 5887 5887 5887 5887 5887
5883 5884 5885 5886 5888 5887 5885 5884 5882 5881 5879 5875 5872 5872 5871 5869 5869 5868 5867 5866 5866 5866 5866 5866 5866 5867 5868 5870 5871 5873 5875 5877 5879 5880 5882 5883 5884 5884 5885 5885 5885 5886 5886 5886 5886 5886 5886 5886 5886
5881 5882 5883 5884 5884 5884 5883 5883 5881 5879 5878 5874 5872 5871 5870 5869 5868 5866 5865 5864 5863 5863 5863 5863 5863 5862 5864 5866 5869 5870 5873 5875 5877 5879 5881 5882 5883 5883 5884 5885 5885 5885 5885 5885 5885 5886 5886 5886 5886
5880 5880 5881 5881 5881 5881 5881 5880 5879 5878 5877 5874 5871 5871 5869 5867 5866 5864 5862 5862 5861 5860 5860 5859 5860 5860 5861 5863 5866 5868 5870 5872 5874 5877 5879 5880 5881 5882 5883 5884 5884 5884 5884 5884 5885 5885 5885 5885 5886
5877 5878 5878 5879 5879 5879 5880 5879 5877 5873 5872 5873 5870 5869 5867 5865 5864 5862 5860 5859 5858 5858 5857 5856 5856 5857 5858 5860 5862 5865 5867 5870 5872 5875 5877 5879 5880 5881 5882 5883 5883 5883 5883 5884 5884 5885 5885 5885 5885
5874 5875 5876 5876 5877 5878 5878 5877 5875 5872 5870 5870 5868 5866 5865 5863 5861 5859 5858 5856 5854 5854 5853 5851 5852 5852 5853 5856 5859 5862 5865 5867 5870 5873 5875 5877 5879 5880 5881 5882 5882 5883 5883 5883 5884 5884 5885 5885 5885
5872 5873 5874 5874 5875 5876 5878 5876 5872 5870 5869 5868 5867 5864 5862 5860 5858 5856 5854 5852 5851 5850 5848 5847 5847 5848 5849 5852 5855 5858 5861 5865 5868 5871 5873 5875 5877 5879 5880 5881 5881 5882 5882 5882 5883 5884 5884 5885 5885
5870 5871 5873 5873 5873 5875 5875 5873 5871 5867 5866 5866 5864 5862 5859 5858 5855 5853 5851 5849 5847 5845 5844 5842 5842 5844 5846 5848 5852 5855 5858 5862 5865 5868 5871 5873 5875 5877 5878 5879 5880 5881 5881 5882 5883 5883 5884 5884 5885
5869 5871 5870 5871 5872 5872 5873 5871 5870 5867 5867 5864 5862 5859 5857 5855 5853 5850 5847 5845 5843 5841 5840 5839 5838 5839 5842 5844 5848 5851 5855 5859 5862 5866 5869 5871 5874 5875 5877 5878 5879 5880 5881 5881 5882 5883 5883 5884 5884
5866 5869 5869 5870 5871 5871 5870 5869 5868 5865 5863 5862 5860 5858 5854 5852 5850 5847 5845 5843 5840 5838 5837 5836 5835 5836 5838 5841 5845 5849 5853 5856 5860 5864 5867 5869 5872 5874 5875 5877 5878 5879 5879 5880 5881 5882 5883 5884 5884
5863 5865 5867 5869 5869 5868 5868 5867 5865 5863 5861 5859 5858 5855 5853 5849 5847 5845 5842 5840 5837 5835 5834 5833 5834 5833 5834 5838 5842 5846 5850 5854 5858 5861 5864 5867 5869 5871 5874 5875 5876 5878 5878 5879 5881 5882 5882 5883 5884
5859 5861 5863 5865 5865 5865 5865 5864 5861 5859 5858 5856 5855 5853 5851 5848 5845 5843 5840 5838 5836 5833 5832 5831 5831 5831 5832 5836 5839 5843 5848 5852 5856 5859 5862 5865 5867 5870 5872 5874 5875 5876 5877 5878 5880 5881 5882 5883 5883
5856 5858 5859 5860 5861 5861 5862 5860 5858 5855 5854 5853 5851 5850 5848 5846 5844 5841 5838 5836 5834 5832 5831 5829 5829 5829 5831 5834 5837 5841 5845 5850 5854 5857 5860 5863 5865 5868 5870 5872 5873 5875 5876 5877 5878 5880 5881 5882 5883
5853 5855 5855 5856 5856 5857 5857 5857 5855 5852 5849 5848 5848 5847 5846 5844 5842 5840 5837 5835 5833 5831 5829 5828 5828 5828 5829 5832 5836 5839 5843 5848 5851 5855 5857 5860 5863 5865 5868 5870 5872 5873 5875 5876 5877 5879 5880 5881 5882
5849 5851 5852 5852 5853 5853 5853 5853 5852 5851 5849 5847 5846 5846 5845 5843 5841 5839 5836 5834 5832 5830 5828 5827 5826 5827 5828 5831 5834 5837 5842 5846 5849 5852 5855 5858 5861 5863 5865 5868 5870 5872 5873 5875 5876 5878 5879 5880 5881
5846 5848 5850 5850 5850 5849 5849 5848 5849 5848 5847 5846 5846 5845 5844 5842 5840 5838 5836 5833 5831 5829 5827 5826 5825 5826 5827 5829 5832 5836 5840 5843 5846 5849 5853 5856 5858 5861 5863 5865 5867 5869 5871 5873 5874 5876 5877 5878 5879
5843 5845 5847 5848 5848 5846 5845 5845 5846 5845 5845 5844 5844 5843 5842 5840 5839 5837 5835 5833 5830 5828 5827 5826 5825 5824 5826 5828 5830 5834 5837 5841 5844 5847 5850 5853 5856 5858 5861 5863 5865 5867 5869 5871 5872 5874 5875 5876 5877
5840 5842 5845 5846 5845 5845 5844 5842 5841 5843 5842 5842 5841 5841 5840 5839 5837 5835 5833 5832 5830 5828 5827 5826 5824 5824 5825 5827 5829 5832 5835 5838 5841 5844 5847 5850 5853 5856 5858 5860 5862 5864 5866 5868 5870 5871 5872 5873 5874
5836 5838 5841 5842 5842 5842 5843 5841 5839 5839 5838 5839 5838 5838 5838 5837 5835 5834 5832 5830 5829 5828 5827 5825 5824 5824 5825 5826 5828 5831 5833 5836 5839 5842 5845 5848 5850 5853 5855 5857 5859 5861 5863 5865 5867 5868 5869 5870 5871
5833 5834 5835 5837 5839 5840 5840 5841 5837 5836 5836 5835 5835 5835 5835 5835 5833 5832 5830 5829 5827 5826 5825 5825 5824 5824 5825 5826 5828 5829 5831 5834 5837 5840 5842 5845 5847 5850 5852 5854 5856 5858 5860 5862 5863 5864 5865 5866 5867
5828 5830 5832 5833 5834 5835 5836 5838 5833 5831 5831 5830 5832 5832 5832 5832 5831 5830 5829 5827 5826 5825 5825 5825 5824 5825 5825 5826 5827 5828 5830 5832 5835 5837 5840 5842 5845 5847 5849 5851 5853 5855 5856 5858 5859 5860 5861 5862 5862